Location: Ins
(47.0050°N, 7.1064°E)
Time: 23:27:27
(UTC+00:00)

Daily predictions for brighter satellites

Satellite Brightness Start Highest point End
(mag) Time Altitude Azimuth Time Altitude Azimuth Time Altitude Azimuth
Cosmos 1741 Rocket 4.1 17:27:19 10° S 17:32:30 60° ESE 17:37:41 10° NNE
CZ-4C R/B 3.8 17:30:57 10° N 17:35:13 72° WNW 17:39:15 10° SSW
USA 267 3.3 17:29:44 10° ESE 17:36:18 80° NNE 17:42:53 10° NW
Cosmos 1626 3.2 17:33:13 10° NNW 17:36:45 49° W 17:40:14 10° S
Cosmos 1814 Rocket 4.4 17:32:09 10° NNW 17:37:11 44° ENE 17:42:08 10° SE
SL-4 R/B 2.3 17:32:50 10° WNW 17:37:13 77° NNE 17:41:52 10° ESE
Cosmos 1805 3.2 17:37:26 10° S 17:41:18 68° E 17:45:10 10° NNE
Cosmos 1242 Rocket 2.6 17:39:00 10° SSW 17:42:33 84° W 17:46:07 10° N
Cosmos 2227 4.5 17:37:27 10° NNW 17:42:56 48° ENE 17:48:21 10° SE
Okean-O 4.5 17:43:19 10° E 17:45:27 13° ENE 17:47:34 10° NNE
ISS -2.7 17:43:55 10° WNW 17:47:09 44° SW 17:50:22 10° SE
Cosmos 2082 4.4 17:41:36 10° NNW 17:47:15 61° WSW 17:52:53 10° S
Cosmos 1697 Rocket 3.8 17:42:15 10° SW 17:47:40 47° NW 17:53:07 10° NNE
CZ-4 R/B 2.3 17:44:14 10° SE 17:47:53 30° ENE 17:51:33 10° N
Okean 2 4.3 17:45:50 10° NNW 17:49:54 55° W 17:53:57 10° S
BREEZE M DEB (TANK) 4.1 17:43:14 10° SSW 17:50:10 26° SSE 17:53:03 12° E
Cosmos 1908 Rocket 4.1 17:49:08 10° SSE 17:53:00 33° E 17:56:55 10° NNE
Meteor 2-21 4.5 17:47:38 10° S 17:53:32 58° E 17:59:27 10° NNE
MOS 1-B 4.3 17:48:08 10° SSE 17:53:53 70° ENE 17:59:41 10° N
SL-14 R/B 3.2 17:50:05 10° N 17:54:05 84° E 17:58:05 10° S
Cosmos 1733 3.4 17:51:04 10° SSW 17:54:49 74° W 17:58:33 10° N
Cosmos 2360 Rocket 3.6 17:52:10 10° SE 17:55:10 15° E 17:58:09 10° ENE
Cosmos 1809 Rocket 4.4 17:52:05 10° S 17:58:08 77° E 18:04:14 10° NNE
Cosmos 1766 3.3 17:57:19 10° S 18:01:09 55° E 18:05:01 10° NNE
Meteor 2-10 4.2 17:57:04 10° S 18:02:41 86° ESE 18:08:11 10° NNE
Cosmos 1674 Rocket 3.5 17:58:53 10° N 18:03:19 85° E 18:07:46 10° S
Cosmos 1025 Rocket 4.3 18:02:27 10° NNE 18:05:51 22° ENE 18:07:56 16° ESE
YAOGAN 1 2.5 18:01:47 10° SSE 18:06:04 64° ENE 18:10:21 10° N
Cosmos 968 Rocket 3.8 18:02:49 10° S 18:07:46 44° ESE 18:12:44 10° NE
Okean O Rocket 1.6 18:05:38 10° SSE 18:09:54 58° ENE 18:14:14 10° N
IRIDIUM 106 4.3 18:06:32 10° S 18:11:42 68° E 18:16:54 10° N
Lacrosse 4 Rocket 2.5 18:09:27 10° SSE 18:12:35 22° ESE 18:13:56 18° E
SKYMED 2 4.5 18:09:51 10° N 18:14:06 53° WNW 18:18:19 10° SSW
Nadezhda 4 Rocket 4.0 18:08:46 10° S 18:15:02 71° E 18:21:19 10° NNE
Meteor 2-5 Rocket 3.9 18:10:17 10° N 18:15:39 48° ENE 18:21:00 10° SSE
Meteor 1-15 Rocket 4.2 18:11:22 10° S 18:16:48 56° E 18:22:14 10° NNE
CSL-04 Rocket 4.4 18:13:27 14° ESE 18:17:17 32° ENE 18:22:04 10° N
Cosmos 2285 Rocket 4.0 18:15:47 10° NNW 18:22:11 85° ENE 18:28:35 10° SSE
USA 186 2.9 18:22:41 26° E 18:23:02 26° ENE 18:25:54 10° N
Cosmos 1726 2.7 18:19:44 10° SSW 18:23:20 59° W 18:26:58 10° N
Cosmos 2322 Rocket 2.7 18:18:26 10° S 18:23:37 37° ESE 18:28:50 10° NE
Cosmos 1470 2.9 18:24:19 10° SSE 18:27:59 44° E 18:31:39 10° NNE
CZ-4B R/B 3.4 18:23:02 10° S 18:28:25 73° WSW 18:33:56 10° NNW
Cosmos 1980 Rocket 3.4 18:24:24 10° SW 18:29:46 44° NW 18:35:09 10° NNE
Cosmos 1378 Rocket 4.5 18:25:35 10° NNW 18:29:50 51° W 18:34:01 10° S
Cosmos 1975 Rocket 3.5 18:26:54 10° N 18:31:04 40° ENE 18:33:08 24° SE
ARGOS Delta rocket 4.3 18:26:13 10° N 18:31:29 72° WNW 18:36:24 10° SSW
Cosmos 2292 Rocket 3.5 18:32:59 10° S 18:38:10 76° E 18:42:06 10° NNE
USA 215 3.8 18:37:26 10° NE 18:43:48 56° NNW 18:50:09 10° W
IRS-1C Rocket 4.4 18:43:42 28° ESE 18:46:06 46° ENE 18:51:08 10° N
Cosmos 1844 Rocket 2.8 18:44:50 10° NNW 18:50:28 59° ENE 18:52:59 32° SE
SL-16 R/B 2.1 18:48:06 10° SSW 18:53:47 86° ESE 18:59:30 10° NNE
Cosmos 1570 Rocket 4.4 18:50:28 10° NNW 18:55:40 63° WSW 19:00:49 10° S
Landsat 5 3.6 18:51:34 10° NNE 18:56:01 60° ESE 19:00:22 10° S
Cosmos 1092 Rocket 3.9 18:50:14 10° S 18:56:32 82° E 19:02:50 10° N
Resurs 01 Rocket 3.0 19:01:19 23° NE 19:01:19 23° NE 19:03:55 10° N
Cosmos 836 Rocket 4.5 18:56:35 10° NNW 19:01:53 64° ENE 19:03:34 42° SE
SJ-6B 2.5 19:02:07 68° SE 19:02:28 76° ENE 19:06:17 10° N
Cosmos 2278 Rocket 4.0 19:01:45 10° N 19:05:12 16° NE 19:05:41 16° NE
H-2A R/B 3.9 19:07:12 23° NNE 19:07:12 23° NNE 19:09:06 10° N
Cosmos 1437 Rocket 3.8 19:02:10 10° SSW 19:05:45 43° WNW 19:09:22 10° N
Cosmos 2263 Rocket 4.4 19:04:39 10° NW 19:09:10 25° WSW 19:13:39 10° SSW
Meteor 1-24 Rocket 3.8 19:05:42 10° NNW 19:10:59 69° W 19:16:12 11° S
Resurs 1-3 3.5 19:11:26 64° E 19:11:35 65° ENE 19:15:57 10° N
SL-4 R/B 3.6 19:12:30 10° WNW 19:16:32 32° SW 19:17:52 27° S
Cosmos 2084 Rocket 3.6 19:15:54 10° NW 19:19:40 56° SW 19:19:51 55° SW
USA 267 4.5 19:14:27 13° SSE 19:19:42 35° SW 19:25:38 10° WNW
Okean-O 2.6 19:20:29 59° S 19:21:17 82° WSW 19:25:44 10° NNW
CZ-4 R/B 3.5 19:19:11 10° SSW 19:22:46 28° W 19:26:24 10° NW
Cosmos 1486 Rocket 3.9 19:17:51 10° SSW 19:23:09 77° ESE 19:28:31 10° NNE
OBJECT-B 3.3 19:24:56 16° NW 19:24:56 16° NW 19:25:39 10° NW
Cosmos 1844 3.5 19:19:24 10° NNW 19:25:00 88° ENE 19:26:13 57° SSE
IGS 5A 3.7 19:24:37 57° SSW 19:25:12 66° WSW 19:29:21 10° NNW
DNEPR-1 R/B 3.9 19:22:46 10° SW 19:27:28 87° NW 19:30:36 27° NE
S3M 4.1 19:24:06 10° N 19:30:10 52° ENE 19:30:10 52° ENE
Cosmos 1300 Rocket 3.6 19:30:15 73° WSW 19:30:28 75° W 19:34:51 10° N
Cosmos 773 Rocket 4.3 19:26:16 10° NNW 19:31:01 52° NE 19:31:01 52° NE
Cosmos 2360 Rocket 2.1 19:32:40 10° SSW 19:38:19 89° WNW 19:44:00 10° NNE
Cosmos 1025 Rocket 4.3 19:39:34 10° NNW 19:43:34 38° W 19:44:51 30° SW
Okean O Rocket 4.4 19:43:59 10° SW 19:46:38 16° W 19:49:17 10° NW
Cosmos 1417 Rocket 4.3 19:44:29 10° N 19:50:40 87° E 19:51:04 79° SSE
Lacrosse 4 Rocket 2.6 19:47:00 10° SW 19:50:17 40° WNW 19:50:17 40° WNW
ATLAS 2AS CENTAUR R/B 4.0 19:54:17 10° NW 20:00:20 27° NNE 20:01:35 26° NE
MOS 1 4.3 20:01:33 74° NNW 20:01:33 74° NNW 20:06:41 10° NNW
Cosmos 1553 Rocket 4.5 19:58:09 10° NNW 20:04:23 58° W 20:06:33 39° SSW
SPOT 1/Viking Rocket 4.1 20:07:53 52° NNW 20:07:53 52° NNW 20:11:47 10° NNW
Cosmos 2322 Rocket 3.4 20:02:18 10° WSW 20:07:38 40° NW 20:13:01 10° NNE
NOSS 3-4 (A) 3.8 20:05:21 10° NW 20:12:04 67° NE 20:12:04 67° NE
NOSS 3-4 (C) 3.8 20:05:28 10° NW 20:12:10 67° NE 20:12:10 67° NE
Ariane Rocket 4.3 20:16:26 34° N 20:16:26 34° N 20:19:18 10° NNW
NOSS 3-3 (A) 4.4 20:15:51 10° SW 20:30:26 - NE 20:20:03 50° WSW
Aureole 1 Rocket 4.4 20:18:06 10° SW 20:25:24 63° WNW 20:31:09 10° NNE
USA 215 4.3 20:24:15 32° NNE 20:26:07 38° N 20:32:00 10° WNW
USA 281 4.0 20:27:40 40° NNE 20:27:40 40° NNE 20:32:25 10° NNW
Cosmos 1844 Rocket 4.5 20:29:28 10° NW 20:33:55 24° WSW 20:34:40 24° WSW
Resurs 01 Rocket 4.0 20:38:52 21° NW 20:38:52 21° NW 20:40:41 10° NNW
Terra 4.4 20:42:43 14° N 20:42:43 14° N 20:43:24 10° N
Cosmos 1943 Rocket 4.3 20:37:05 10° N 20:38:59 18° N 20:38:59 18° N
Cosmos 2278 Rocket 3.8 20:44:43 10° NNW 20:47:32 30° NNW 20:47:32 30° NNW
Cosmos 2360 Rocket 4.5 21:19:05 10° W 21:23:08 20° NW 21:27:12 10° N
ATLAS 2AS CENTAUR R/B 4.2 21:45:27 10° NW 21:49:00 31° NNW 21:49:00 31° NNW
